{"data":{"norad_id":64884,"epoch":"2026-09-21T20:57:31.000608Z","epoch_age_seconds":52618,"freshness":"FRESH","line1":"1 64884U 25155J   26264.87327547  .00006622  00000+0  22357-3 0  9998","line2":"2 64884  97.4685 233.8303 0007657 168.5745 191.5671 15.30997027 95540","mean_motion":15.30997027,"eccentricity":0.0007657,"inclination_deg":97.4685,"raan_deg":233.8303,"arg_perigee_deg":168.5745,"mean_anomaly_deg":191.5671,"bstar":0.00022357,"rev_number":9554,"period_min":94.056355081348,"perigee_km":467.59053266317,"apogee_km":478.08211320992,"semimajor_km":6850.9733229365,"source":"CELESTRAK","updated_at":"2026-09-22T09:00:30.015633Z"}}